Regional Weather Roundup
Issued by NWS

Home | Current Version | Previous Version | Text Only | Print | Product List | Glossary On
Versions: 1 2 3 4 5 6 7 8 9 10 11 12 13 14 15 16 17 18 19 20 21 22 23 24 25 26 27 28
000
ASUS42 KTBW 201016
RWRFL
FLORIDA REGIONAL WEATHER ROUNDUP
NATIONAL WEATHER SERVICE TAMPA BAY RUSKIN FL
500 AM EST MON NOV 20 2017

NOTE: "FAIR" INDICATES FEW OR NO CLOUDS BELOW 12,000 FEET WITH NO
SIGNIFICANT WEATHER AND/OR OBSTRUCTIONS TO VISIBILITY.

FLZ001>010-012>015-112-114-115-201100-
PANHANDLE FLORIDA

CITY           SKY/WX    TMP DP  RH WIND       PRES   REMARKS
PENSACOLA      CLEAR     44  31  60 NE7       30.19R WCI  40
PENSACOLA NAS  CLEAR     41  32  70 N5        30.19R WCI  38
MILTON NAS     PTCLDY    37  33  85 N3        30.19
CRESTVIEW      CLEAR     35  32  88 NE5       30.19F WCI  31
DUKE FIELD     FAIR      34  31  88 CALM      30.18S
VALPARAISO     CLEAR     37  32  83 N5        30.17F WCI  33
MARY ESTHER    CLEAR     36  33  89 N7        30.17S WCI  30
PANAMA CITY    FAIR      39  35  86 N7        30.16F WCI  34
TYNDALL AFB    CLEAR     44  36  73 NE8       30.17R WCI  39
APALACHICOLA   CLEAR     44  37  76 NE8       30.16R WCI  39

STATION/POSITION SKY/WX   TEMP    WIND        PRES    WAVE   SWELL
                          AIR SEA DIR/SP/G            HT/PER HT/PER
                          (F)     (DEG/KT/KT) (MB)    (FT/S) (FT/S)
29.2N   88.2W              60 78   40/ 14/ 19 1021.2
28.8N   86.0W              60 78   40/ 16/ 21 1019.9R   5/ 6
PANAMA CITY BEAC           42 70   20/ 10/ 13 1021.8F
TOWER C                    53      40/ 22/ 23 1021.0R
28.5N   84.5W              62 75   40/ 17/ 21 1018.9S   5/ 6

$$
FLZ011-016>038-118-127-128-134-139-239-201100-
NORTH FLORIDA

CITY           SKY/WX    TMP DP  RH WIND       PRES   REMARKS
MARIANNA       CLEAR     37  33  85 CALM      30.18R
TALLAHASSEE    CLEAR     38  35  89 MISG      30.16F
PERRY          PTCLDY    43  34  70 NE6       30.15S WCI  40
LIVE OAK       CLEAR     41  34  75 CALM      30.16S
CROSS CITY     CLEAR     34  33  94 N5        30.19S WCI  30
LAKE CITY      FAIR      41  34  75 N5        30.15R WCI  38
GAINESVILLE    CLEAR     41  35  79 N6        30.16S WCI  37
WILLISTON      CLEAR     43  39  87 CALM      30.14R
PALATKA        CLOUDY    45  37  76 N7        30.13R WCI  41
MAYPORT NAS    CLEAR     50  40  68 NW6       30.13R
JACKSONVILLE   CLEAR     43  35  73 N5        30.14R WCI  40
JAX NAS        PTCLDY    50  36  58 N15       30.14R WCI  45
JAX CECIL        N/A     39  36  87 MISG      30.15R
ST AUGUSTINE   CLEAR     47  37  68 NW9       30.13R WCI  43
PALM COAST     FAIR      47  39  74 NW7       30.10S WCI  44

STATION/POSITION SKY/WX   TEMP    WIND        PRES    WAVE   SWELL
                          AIR SEA DIR/SP/G            HT/PER HT/PER
                          (F)     (DEG/KT/KT) (MB)    (FT/S) (FT/S)
SHELL POINT      NOT AVBL
KEATON BEACH               44      30/  5/  8 1020.8R
CEDAR KEY                  48      30/  7/ 10 1020.6R
FERNANDINA                 51 64  350/  7/ 13 1021.2S
30.7N   81.3W                 67                N/A     4/ 5
MAYPORT                    50 66  340/  6/  9 1020.4R
31.4N   80.9W              59 67   50/ 16/ 19 1019.8S   4/ 5
ST AUGUSTINE               51 67  330/  8/  9 1019.8R

$$
FLZ040-043>046-052-053-057-058-063-144-201100-
INTERIOR CENTRAL FLORIDA

CITY           SKY/WX    TMP DP  RH WIND       PRES   REMARKS
OCALA          CLEAR     47  36  65 N7        30.12S WCI  44
THE VILLAGES     N/A     50  39  66 MISG      30.01S
LEESBURG       PTCLDY    49  39  68 N8        30.11S
SANFORD        CLEAR     52  44  74 N8        30.09R
ORLANDO EXEC   CLEAR     54  44  69 N7        30.08S
ORLANDO INTL   CLEAR     50  44  80 N9        30.08S
KISSIMMEE      CLEAR     53  42  66 N7        30.09R
WINTER HAVEN   CLEAR     51  44  77 N7        30.08S
LAKELAND       CLEAR     46  41  81 N7        30.08S WCI  43
BARTOW         FAIR      54  43  66 N8G14     30.08R
SEBRING        FAIR      55  45  70 N7        30.06R
OKEECHOBEE     PTCLDY    54  48  82 N7        30.04R

$$
FLZ041-047-054-059-064-141-147-201100-
EAST CENTRAL FLORIDA

CITY           SKY/WX    TMP DP  RH WIND       PRES   REMARKS
DAYTONA BEACH  PTCLDY    49  43  80 CALM      30.09S
DELAND         CLEAR     50  41  71 N9        30.09S
JFK SPACE CTR  CLEAR     63  55  76 NE8       30.05S
CAPE CANAVERAL CLEAR     65  53  65 N9        30.04R
PATRICK AFB    CLEAR     62  56  80 N9        30.05R
MELBOURNE      CLEAR     55  49  80 NW6       30.05R
VERO BEACH     CLEAR     66  54  65 N9        30.04R
FT PIERCE      CLEAR     60  57  89 NW5       30.03R
STUART         PTCLDY    72  61  68 N9        30.03R

STATION/POSITION SKY/WX   TEMP    WIND        PRES    WAVE   SWELL
                          AIR SEA DIR/SP/G            HT/PER HT/PER
                          (F)     (DEG/KT/KT) (MB)    (FT/S) (FT/S)
28.5N   80.2W              71 76   20/ 17/ 21 1017.3R   5/ 7   2/12
TRIDENT PIER     NOT AVBL
27.5N   80.2W                 74                N/A     5/ 6

$$
FLZ050-056-061-142-242-148-248-149-249-151-251-155-255-
160-260-201100-
WEST CENTRAL FLORIDA

CITY           SKY/WX    TMP DP  RH WIND       PRES   REMARKS
CRYSTAL RIVER  FAIR      43  36  75 N3        30.12S
INVERNESS      FAIR      45  39  81 N7        30.12S WCI  41
BROOKSVILLE    CLEAR     45  37  73 N5        30.11S WCI  43
CLEARWATER AIR FAIR      50  36  57 NE5       30.09S
ST PETE CLEARW CLEAR     55  42  61 N15G23    30.09S
TAMPA INTL     CLEAR     52  39  61 N8        30.09S
TAMPA EXEC     CLEAR     46  39  76 NE5       30.09S WCI  44
PLANT CITY     CLEAR     50  41  71 N6        30.10S
MACDILL AFB    CLEAR     49  43  78 NE8       30.08S
PETER O KNIGHT   N/A     50  41  71 NE7       30.09S
ST PETERSBURG  CLEAR     58  46  64 NE18      30.07S
SARASOTA       CLEAR     53  41  63 NE10      30.05S
VENICE         FAIR      54  45  71 NE9G18    30.06R

STATION/POSITION SKY/WX   TEMP    WIND        PRES    WAVE   SWELL
                          AIR SEA DIR/SP/G            HT/PER HT/PER
                          (F)     (DEG/KT/KT) (MB)    (FT/S) (FT/S)
27.3N   84.2W                 77                N/A     6/ 6
CLEARWATER BEACH           54 69   40/ 14/ 18 1019.1R
MIDDLE TAMPA BAY           58      40/ 20/ 22 1018.6S
VENICE                     54 72   30/ 11/ 15 1017.8R

$$
FLZ066-069-070-075>078-162-262-165-265-201100-
SOUTHWEST FLORIDA AND KEYS

CITY           SKY/WX    TMP DP  RH WIND       PRES   REMARKS
PUNTA GORDA    CLEAR     54  46  74 NE8       30.06S
FT MYERS       PTCLDY    61  52  72 NE9       30.03R
SOUTHWEST INTL CLEAR     60  51  72 NE10      30.04R
NAPLES         MOCLDY    65  59  81 NE12      30.01R
MARCO ISLAND   CLOUDY    66  63  88 NE10      30.02R
IMMOKALEE      MOCLDY    63  54  72 N10       30.04S
MARATHON       CLEAR     73  68  84 N5        29.98R
KEY WEST NAS   CLEAR     71  71 100 E5        29.98R
KEY WEST INTL  LGT RAIN  73  71  93 N9        29.98S

STATION/POSITION SKY/WX   TEMP    WIND        PRES    WAVE   SWELL
                          AIR SEA DIR/SP/G            HT/PER HT/PER
                          (F)     (DEG/KT/KT) (MB)    (FT/S) (FT/S)
NAPLES                        75   20/  8/ 12 1016.2R
DRY TORTUGAS               73      20/ 18/ 20 1015.5R
SAND KEY                   75                 1015.6R
MOLASSES REEF              72 80   10/ 14/ 15 1015.5R

$$
FLZ067-068-071>074-168-172>174-201100-
SOUTHEAST FLORIDA

CITY           SKY/WX    TMP DP  RH WIND       PRES   REMARKS
W PALM BEACH   PTCLDY    69  60  73 N8        30.01R
FT LAUDER-EXEC CLEAR     68  63  84 N7        30.00R
FT LAUDERDALE  CLEAR     69  65  86 N12       29.99R
POMPANO BEACH  CLEAR     70  64  81 N10       30.00R
PEMBROKE PINES CLEAR     69  64  84 N9        30.01R
OPA LOCKA      CLEAR     69  69 100 N7        30.00R
MIAMI          PTCLDY    71  68  90 N7        30.00R
WEST KENDALL   MOCLDY    69  67  93 NE8       30.00R
HOMESTEAD      CLEAR     68  68 100 N5        29.99R

STATION/POSITION SKY/WX   TEMP    WIND        PRES    WAVE   SWELL
                          AIR SEA DIR/SP/G            HT/PER HT/PER
                          (F)     (DEG/KT/KT) (MB)    (FT/S) (FT/S)
PORT EVERGLADES            70     330/ 10/ 15 1015.3R
VIRGINIA KEY               71 78  350/  2/  7 1015.1R
LAKE WORTH                 70 79  320/  9/ 11 1016.6R
FOWEY ROCKS                72 77  350/ 14/ 16 1016.1R
SETTLEMENT POINT           72      40/ 23/ 26 1015.8R

$$





USA.gov is the U.S. government's official web portal to all federal, state and local government web resources and services.